Location: Rooftop Observatory
(39.0308°N, 87.1711°W)
Time: 22:33:42
(UTC-05:00)

Daily predictions for brighter satellites

Satellite Brightness Start Highest point End
(mag) Time Altitude Azimuth Time Altitude Azimuth Time Altitude Azimuth
ATLAS CENTAUR R/B 1.2 19:57:24 10° SSW 20:00:55 52° ESE 20:04:36 10° NE
Cosmos 1300 4.4 19:58:54 10° SSW 20:02:30 40° W 20:06:08 10° N
Cosmos 2228 Rocket 4.2 20:00:43 10° SE 20:04:11 23° E 20:07:41 10° NE
SJ-6B 2.8 20:01:39 10° SSE 20:05:40 74° ENE 20:09:38 10° N
Meteor 2-3 Rocket 4.2 20:00:27 10° N 20:05:45 41° ENE 20:11:03 10° SE
Timation 1 Rocket 4.4 20:01:21 10° NNW 20:07:20 75° ENE 20:13:18 10° SSE
Cosmos 1805 Rocket 3.7 20:04:35 10° N 20:08:56 77° W 20:13:15 10° S
Cosmos 2360 Rocket 4.5 20:06:09 10° WSW 20:11:01 29° WNW 20:15:54 10° N
Cosmos 1328 Rocket 4.0 20:07:28 10° SSE 20:11:38 42° E 20:15:49 10° NNE
Cosmos 1408 4.2 20:09:53 10° NNE 20:12:26 18° ENE 20:14:42 11° ESE
Envisat 3.0 20:08:32 10° SSE 20:13:37 85° ENE 20:18:43 10° NNW
Cosmos 1980 4.0 20:08:42 10° S 20:14:02 44° ESE 20:19:24 10° NE
Cosmos 1939 Rocket 3.2 20:12:34 10° SE 20:16:13 42° ENE 20:19:56 10° N
Cosmos 2251 Rocket 3.7 20:12:49 10° NNW 20:18:13 79° WSW 20:23:33 10° SSE
Meteor 2-15 4.5 20:12:14 10° N 20:18:24 90° E 20:24:30 10° S
ERS-2 2.1 20:16:43 10° SSE 20:20:21 76° ENE 20:24:03 10° N
Cosmos 2154 Rocket 4.1 20:18:03 10° S 20:24:19 85° W 20:30:35 10° N
Cosmos 1455 2.1 20:21:47 10° S 20:25:35 70° E 20:29:25 10° NNE
Cosmos 1844 Rocket 3.2 20:21:19 10° NNW 20:26:55 63° WSW 20:32:28 10° S
Cosmos 2333 Rocket 2.2 20:21:24 10° SSW 20:27:04 88° WNW 20:32:46 10° NNE
Cosmos 1470 Rocket 4.1 20:23:09 10° N 20:27:19 40° ENE 20:31:12 12° SSE
SL-8 R/B 3.7 20:23:03 10° SW 20:27:50 87° SSE 20:32:39 10° ENE
YAOGAN 6 2.5 20:25:25 10° SSE 20:28:58 68° ENE 20:32:36 10° N
Resurs 01 Rocket 1.8 20:26:02 10° SSE 20:30:23 57° ENE 20:34:44 10° N
CZ-2D R/B 4.1 20:27:14 10° S 20:30:56 51° W 20:34:40 10° NNW
COSMOS 2428 3.9 20:26:48 10° SW 20:32:19 47° WNW 20:37:50 10° NNE
Meteor 1-27 4.2 20:29:05 10° S 20:34:49 82° E 20:40:30 10° N
OAO 2 Rocket 4.3 20:30:47 10° W 20:35:32 36° SSW 20:39:04 16° SE
Cosmos 1892 3.1 20:31:44 10° NNW 20:35:36 66° W 20:39:25 10° S
Cosmos 1844 4.1 20:31:23 10° NNW 20:37:03 68° WSW 20:42:45 10° S
Cosmos 2219 Rocket 2.8 20:31:57 10° SW 20:37:32 61° WNW 20:43:09 10° NNE
NOSS 0 Rocket 3.9 20:31:52 10° SSW 20:38:01 81° ESE 20:44:14 10° NNE
Cosmos 2098 Rocket 4.0 20:34:45 13° SE 20:38:01 27° E 20:41:21 10° NE
Cosmos 2237 Rocket 2.1 20:35:29 10° SSW 20:41:02 70° ESE 20:46:39 10° NNE
Cosmos 1624 Rocket 4.5 20:38:23 10° SSE 20:43:07 37° E 20:47:51 10° NE
Genesis I 3.2 20:42:58 10° NNW 20:47:04 88° WSW 20:49:41 21° SSE
Cosmos 220 Rocket 4.0 20:43:38 10° NNW 20:47:58 79° WSW 20:51:35 14° SSE
Cosmos 2341 Rocket 4.1 20:42:54 10° S 20:49:16 81° W 20:55:37 10° N
ATLAS 2AS CENTAUR R/B 2.9 20:42:59 10° NNW 20:50:54 87° WSW 20:56:47 17° SSE
Thor Agena Rocket 4.2 20:45:55 10° N 20:51:05 60° WNW 20:56:16 10° SSW
Cosmos 2278 Rocket 2.2 20:46:34 10° NNW 20:52:15 70° ENE 20:56:10 21° SE
Cosmos 2218 Rocket 4.1 20:46:14 10° S 20:52:24 58° E 20:58:40 10° NNE
Cosmos 1151 Rocket 2.9 20:49:23 10° S 20:53:37 84° E 20:57:55 10° N
NOAA 11 4.2 20:51:00 15° SSE 20:55:30 69° ENE 21:00:59 10° N
Cosmos 1933 Rocket 3.5 20:51:29 10° N 20:55:52 71° E 20:58:46 20° SSE
Spot 2 Rocket 3.4 20:51:54 14° SSE 20:56:21 82° ENE 21:01:27 10° NNW
Cosmos 405 Rocket 4.3 21:02:00 20° ENE 21:02:00 20° ENE 21:04:02 10° NE
Resurs 1-3 4.0 20:56:53 10° S 21:01:12 61° W 21:05:33 10° NNW
Cosmos 2366 rocket 4.0 20:56:20 10° S 21:02:26 63° E 21:08:38 10° NNE
USA 186 3.7 21:03:14 10° SW 21:04:51 18° W 21:06:30 10° NW
ASTRO E2 4.2 21:07:16 10° SW 21:09:50 22° S 21:09:50 22° S
SL-8 Rocket 4.0 21:04:37 10° S 21:10:56 84° W 21:17:15 10° N
Cosmos 1825 2.1 21:07:44 10° N 21:11:33 89° W 21:13:04 35° S
Helios 1A 4.5 21:18:13 22° ENE 21:18:13 22° ENE 21:21:14 10° NNE
Cosmos 1869 Rocket 4.2 21:14:25 10° N 21:18:27 36° ENE 21:18:36 36° E
GEOS 3 Rocket 4.4 21:13:58 10° NE 21:17:47 31° E 21:17:47 31° E
Cosmos 1339 Rocket 4.4 21:13:42 10° N 21:19:47 68° E 21:22:59 30° SSE
CZ-4B DEB 4.4 21:19:22 57° S 21:20:02 88° WSW 21:23:33 10° NNW
NOSS 3-4 (A) 4.1 21:14:27 10° NNW 21:21:22 54° NE 21:24:48 31° ESE
NOSS 3-4 (C) 4.1 21:14:34 10° NNW 21:21:28 53° NE 21:24:54 31° ESE
CZ-4C R/B 4.0 21:30:39 15° ENE 21:30:39 15° ENE 21:31:53 10° NE
ERS-1 Rocket 3.3 21:30:03 43° E 21:30:51 47° ENE 21:35:39 10° N
ARGOS 3.1 21:29:23 42° SE 21:31:09 70° ENE 21:36:29 10° N
MetOp-B 4.2 21:30:03 44° SE 21:31:33 62° ENE 21:36:50 10° N
USA 267 3.7 21:25:53 10° ENE 21:35:38 20° S 21:37:47 10° SSW
SL-16 R/B 2.0 21:26:22 10° SSW 21:32:00 74° ESE 21:37:39 10° NNE
Cosmos 407 Rocket 3.3 21:31:32 10° NNW 21:36:40 73° ENE 21:37:42 55° SE
SPOT 1/Viking Rocket 4.4 21:38:29 33° ENE 21:38:42 33° ENE 21:43:20 10° N
Cosmos 2344 3.6 21:32:09 10° SSW 21:39:34 55° ESE 21:47:21 10° NE
USA 81 3.9 21:36:13 10° N 21:41:31 79° E 21:42:46 53° SSE
Meteor 2-10 Rocket 3.9 21:36:21 13° SSW 21:41:34 74° W 21:47:24 10° N
H-2A R/B 1.9 21:45:53 63° SE 21:46:36 75° ENE 21:51:34 10° N
BREEZE-M DEB (TANK) 4.2 21:45:03 10° WNW 21:46:36 23° W 21:46:36 23° W
Terra 3.5 21:52:36 21° NE 21:52:36 21° NE 21:55:21 10° NNE
Cosmos 676 Rocket 3.9 21:52:51 10° NNW 21:58:06 70° ENE 21:58:14 70° E
Cosmos 1023 Rocket 4.5 22:00:12 10° NNW 22:05:05 68° NE 22:05:05 68° NE
Cosmos 1441 Rocket 4.3 22:06:14 41° NW 22:06:14 41° NW 22:09:18 10° N
Cosmos 2297 3.7 22:00:14 10° NNW 22:05:55 76° WSW 22:06:39 66° SSW
Resurs 01 Rocket 4.4 22:05:26 10° WSW 22:07:11 12° W 22:08:56 10° WNW
Cosmos 1452 Rocket 3.4 22:09:18 78° NE 22:09:18 78° NE 22:14:14 10° NNE
Cosmos 2369 Rocket 3.6 22:05:51 10° N 22:10:23 25° NE 22:10:23 25° NE
SPOT 5 3.2 22:17:03 54° N 22:17:03 54° N 22:20:32 10° N
Lacrosse 5 3.6 22:13:45 10° NNW 22:17:41 22° NNE 22:18:19 21° NE
Cosmos 1000 Rocket 4.3 22:12:22 10° N 22:18:37 86° E 22:19:06 77° SSE
Cosmos 1821 Rocket 3.9 22:22:08 71° S 22:22:54 88° W 22:29:15 10° N
Centaur D-1A AC-31 3.8 22:22:22 10° WSW 22:25:38 18° SW 22:25:38 18° SW
Cosmos 1140 Rocket 3.7 22:22:59 10° NNW 22:27:32 65° NW 22:27:32 65° NW
Helios 1B rocket 4.1 22:28:24 10° N 22:30:32 29° N 22:30:32 29° N
ATLAS 2A CENTAUR R/B 4.2 22:20:31 10° WSW 22:33:58 38° SSW 22:33:58 38° SSW
ATLAS 5 CENTAUR R/B 3.5 22:30:12 10° NNW 22:35:29 32° NE 22:35:40 32° NE
SL-19 R/B 4.4 22:38:01 73° NW 22:38:01 73° NW 22:43:05 10° NNW
Cosmos 2123 Rocket 4.1 22:36:02 10° N 22:41:43 69° NE 22:41:43 69° NE
CZ-2C R/B 4.4 23:05:00 31° N 23:05:00 31° N 23:07:32 10° N
Cosmos 1605 Rocket 4.4 23:14:20 61° NNW 23:14:20 61° NNW 23:19:42 10° N
USA 267 3.6 23:08:35 10° NE 23:15:00 61° NW 23:18:20 30° WSW
CZ-4C R/B 3.2 23:15:43 41° NW 23:15:43 41° NW 23:21:03 10° NNE
Cosmos 1943 Rocket 3.3 23:13:56 10° NNW 23:17:25 38° N 23:17:25 38° N
Terra 3.9 23:31:28 24° NW 23:31:28 24° NW 23:33:38 10° NNW
USA 234 3.8 23:48:09 54° N 23:48:09 54° N 23:53:44 10° NW
